Simultaneous Nadir Overpasses (SNOs) Predictions

Prediction of SNOs between METOP-B and TERRA Satellite Orbit:

Table of predicted SNOs for the next 14.0 days since TLE Epoch: 4/10/2021
Index Date (METOP-B) Time (METOP-B) Lat,Lon (METOP-B) SZA (METOP-B ) Date (TERRA) Time (TERRA) Lat,Lon (TERRA) SZA (TERRA ) Distance(km) Time Diff (sec)
1 04/10/2021 06:01:47 81.31, 135.85 75.94 04/10/2021 06:02:12 81.31, 136.02 75.98 2.95 25
2 04/10/2021 06:52:26 -81.32, -56.29 104.01 04/10/2021 06:51:39 -81.31, -56.46 104.06 2.95 47
3 04/13/2021 01:36:07 81.31,-157.87 74.92 04/13/2021 01:36:25 81.31,-157.69 74.95 2.97 18
4 04/13/2021 02:26:45 -81.32, 10.38 104.98 04/13/2021 02:25:51 -81.32, 10.23 105.02 2.57 54
5 04/15/2021 21:10:27 81.31, -91.22 73.97 04/15/2021 21:10:38 81.32, -91.07 73.99 2.60 11
6 04/15/2021 22:01:06 -81.32, 76.65 105.98 04/15/2021 22:00:05 -81.31, 76.50 106.03 2.61 61
7 04/18/2021 16:44:48 81.31, -24.98 72.98 04/18/2021 16:44:52 81.30, -24.86 72.99 2.07 4
8 04/18/2021 17:35:26 -81.32, 143.30 106.92 04/18/2021 17:34:18 -81.32, 143.12 106.97 3.05 68
9 04/21/2021 11:28:27 -81.30,-126.12 107.98 04/21/2021 11:29:38 -81.31,-125.98 107.93 2.38 71
10 04/21/2021 12:19:07 81.31, 41.63 72.07 04/21/2021 12:19:04 81.31, 41.69 72.07 1.00 3



Historial Predications of SNOs between METOP-B and TERRA
